Location: Marcé
(47.5801°N, 0.3280°W)
Time: 08:51:04
(UTC+01:00)

Vanguard 1 - Pass Details

Date: 06 December 2021
Orbit: 652 x 3830 km, 34.2° (Epoch: 24 January)

Event Time Altitude Azimuth Distance (km) Brightness Sun altitude
Rises 23:47:02 0° 222° (SW) 6,854 14.3 -61.7°
Enters shadow 23:48:56 - 219° (SW) 6,554 14.1 -61.9°
Reaches altitude 10° 23:51:30 10° 216° (SW) 6,170 - -62.1°
Maximum altitude 00:10:41 44° 153° (SSE) 4,689 - -63.6°
Exits shadow 00:30:12 11° 92° (E) 6,384 14.0 -64.5°
Drops below altitude 10° 00:30:41 10° 91° (E) 6,454 14.1 -64.5°
Sets 00:35:27 0° 86° (E) 7,184 14.5 -64.7°
